Year,Month,Day,Hour,Minute,Value (Times are PST for temperature in C)
2020,05,05,00,00,6.80
2020,05,05,00,01,6.80
2020,05,05,00,02,6.80
2020,05,05,00,03,6.80
2020,05,05,00,04,6.80
2020,05,05,00,05,6.80
2020,05,05,00,06,6.80
2020,05,05,00,07,6.80
2020,05,05,00,08,6.80
2020,05,05,00,09,6.80
2020,05,05,00,10,6.80
2020,05,05,00,11,6.80
2020,05,05,00,12,6.80
2020,05,05,00,13,6.80
2020,05,05,00,14,6.80
2020,05,05,00,15,6.80
2020,05,05,00,16,6.80
2020,05,05,00,17,6.80
2020,05,05,00,18,6.80
2020,05,05,00,19,6.80
2020,05,05,00,20,6.80
2020,05,05,00,21,6.80
2020,05,05,00,22,6.80
2020,05,05,00,23,6.80
2020,05,05,00,24,6.80
2020,05,05,00,25,6.80
2020,05,05,00,26,6.80
2020,05,05,00,27,6.80
2020,05,05,00,28,6.80
2020,05,05,00,29,6.80
2020,05,05,00,30,6.80
2020,05,05,00,31,6.80
2020,05,05,00,32,6.80
2020,05,05,00,33,6.80
2020,05,05,00,34,6.80
2020,05,05,00,35,6.80
2020,05,05,00,36,6.80
2020,05,05,00,37,6.80
2020,05,05,00,38,6.80
2020,05,05,00,39,6.80
2020,05,05,00,40,6.80
2020,05,05,00,41,6.80
2020,05,05,00,42,6.70
2020,05,05,00,43,6.70
2020,05,05,00,44,6.70
2020,05,05,00,45,6.70
2020,05,05,00,46,6.70
2020,05,05,00,47,6.70
2020,05,05,00,48,6.70
2020,05,05,00,49,6.60
2020,05,05,00,50,6.60
2020,05,05,00,51,6.60
2020,05,05,00,52,6.60
2020,05,05,00,53,6.60
2020,05,05,00,54,6.50
2020,05,05,00,55,6.50
2020,05,05,00,56,6.50
2020,05,05,00,57,6.50
2020,05,05,00,58,6.40
2020,05,05,00,59,6.40
2020,05,05,01,00,6.40
2020,05,05,01,01,6.40
2020,05,05,01,02,6.40
2020,05,05,01,03,6.40
2020,05,05,01,04,6.40
2020,05,05,01,05,6.40
2020,05,05,01,06,6.40
2020,05,05,01,07,6.30
2020,05,05,01,08,6.30
2020,05,05,01,09,6.30
2020,05,05,01,10,6.30
2020,05,05,01,11,6.30
2020,05,05,01,12,6.30
2020,05,05,01,13,6.20
2020,05,05,01,14,6.20
2020,05,05,01,15,6.10
2020,05,05,01,16,6.00
2020,05,05,01,17,6.00
2020,05,05,01,18,5.90
2020,05,05,01,19,5.80
2020,05,05,01,20,5.80
2020,05,05,01,21,5.80
2020,05,05,01,22,5.70
2020,05,05,01,23,5.70
2020,05,05,01,24,5.70
2020,05,05,01,25,5.70
2020,05,05,01,26,5.60
2020,05,05,01,27,5.60
2020,05,05,01,28,5.60
2020,05,05,01,29,5.60
2020,05,05,01,30,5.60
2020,05,05,01,31,5.60
2020,05,05,01,32,5.60
2020,05,05,01,33,5.70
2020,05,05,01,34,5.70
2020,05,05,01,35,5.70
2020,05,05,01,36,5.70
2020,05,05,01,37,5.70
2020,05,05,01,38,5.70
2020,05,05,01,39,5.70
2020,05,05,01,40,5.70
2020,05,05,01,41,5.70
2020,05,05,01,42,5.70
2020,05,05,01,43,5.70
2020,05,05,01,44,5.70
2020,05,05,01,45,5.70
2020,05,05,01,46,5.80
2020,05,05,01,47,5.80
2020,05,05,01,48,5.80
2020,05,05,01,49,5.80
2020,05,05,01,50,5.80
2020,05,05,01,51,5.80
2020,05,05,01,52,5.80
2020,05,05,01,53,5.80
2020,05,05,01,54,5.80
2020,05,05,01,55,5.80
2020,05,05,01,56,5.80
2020,05,05,01,57,5.90
2020,05,05,01,58,5.90
2020,05,05,01,59,5.90
2020,05,05,02,00,5.90
2020,05,05,02,01,5.90
2020,05,05,02,02,5.90
2020,05,05,02,03,5.90
2020,05,05,02,04,5.90
2020,05,05,02,05,5.90
2020,05,05,02,06,5.90
2020,05,05,02,07,6.00
2020,05,05,02,08,6.00
2020,05,05,02,09,6.00
2020,05,05,02,10,6.00
2020,05,05,02,11,6.00
2020,05,05,02,12,6.00
2020,05,05,02,13,6.00
2020,05,05,02,14,6.00
2020,05,05,02,15,6.00
2020,05,05,02,16,6.00
2020,05,05,02,17,6.00
2020,05,05,02,18,6.00
2020,05,05,02,19,6.00
2020,05,05,02,20,5.90
2020,05,05,02,21,6.00
2020,05,05,02,22,5.90
2020,05,05,02,23,6.00
2020,05,05,02,24,5.90
2020,05,05,02,25,5.90
2020,05,05,02,26,5.90
2020,05,05,02,27,5.90
2020,05,05,02,28,5.90
2020,05,05,02,29,5.90
2020,05,05,02,30,5.90
2020,05,05,02,31,5.90
2020,05,05,02,32,5.90
2020,05,05,02,33,5.90
2020,05,05,02,34,5.90
2020,05,05,02,35,5.80
2020,05,05,02,36,5.80
2020,05,05,02,37,5.80
2020,05,05,02,38,5.80
2020,05,05,02,39,5.80
2020,05,05,02,40,5.80
2020,05,05,02,41,5.80
2020,05,05,02,42,5.70
2020,05,05,02,43,5.70
2020,05,05,02,44,5.70
2020,05,05,02,45,5.60
2020,05,05,02,46,5.60
2020,05,05,02,47,5.60
2020,05,05,02,48,5.50
2020,05,05,02,49,5.50
2020,05,05,02,50,5.50
2020,05,05,02,51,5.40
2020,05,05,02,52,5.40
2020,05,05,02,53,5.40
2020,05,05,02,54,5.30
2020,05,05,02,55,5.30
2020,05,05,02,56,5.30
2020,05,05,02,57,5.30
2020,05,05,02,58,5.30
2020,05,05,02,59,5.30
2020,05,05,03,00,5.20
2020,05,05,03,01,5.20
2020,05,05,03,02,5.20
2020,05,05,03,03,5.20
2020,05,05,03,04,5.20
2020,05,05,03,05,5.30
2020,05,05,03,06,5.20
2020,05,05,03,07,5.20
2020,05,05,03,08,5.20
2020,05,05,03,09,5.20
2020,05,05,03,10,5.20
2020,05,05,03,11,5.20
2020,05,05,03,12,5.20
2020,05,05,03,13,5.20
2020,05,05,03,14,5.20
2020,05,05,03,15,5.20
2020,05,05,03,16,5.20
2020,05,05,03,17,5.20
2020,05,05,03,18,5.20
2020,05,05,03,19,5.20
2020,05,05,03,20,5.20
2020,05,05,03,21,5.20
2020,05,05,03,22,5.10
2020,05,05,03,23,5.10
2020,05,05,03,24,5.10
2020,05,05,03,25,5.10
2020,05,05,03,26,5.10
2020,05,05,03,27,5.10
2020,05,05,03,28,5.00
2020,05,05,03,29,5.00
2020,05,05,03,30,5.00
2020,05,05,03,31,5.00
2020,05,05,03,32,5.00
2020,05,05,03,33,4.90
2020,05,05,03,34,4.90
2020,05,05,03,35,4.90
2020,05,05,03,36,4.90
2020,05,05,03,37,4.90
2020,05,05,03,38,4.90
2020,05,05,03,39,4.80
2020,05,05,03,40,4.80
2020,05,05,03,41,4.80
2020,05,05,03,42,4.80
2020,05,05,03,43,4.70
2020,05,05,03,44,4.70
2020,05,05,03,45,4.70
2020,05,05,03,46,4.70
2020,05,05,03,47,4.70
2020,05,05,03,48,4.70
2020,05,05,03,49,4.70
2020,05,05,03,50,4.70
2020,05,05,03,51,4.70
2020,05,05,03,52,4.70
2020,05,05,03,53,4.70
2020,05,05,03,54,4.70
2020,05,05,03,55,4.70
2020,05,05,03,56,4.70
2020,05,05,03,57,4.70
2020,05,05,03,58,4.70
2020,05,05,03,59,4.70
2020,05,05,04,00,4.70
2020,05,05,04,01,4.70
2020,05,05,04,02,4.70
2020,05,05,04,03,4.70
2020,05,05,04,04,4.70
2020,05,05,04,05,4.70
2020,05,05,04,06,4.70
2020,05,05,04,07,4.70
2020,05,05,04,08,4.70
2020,05,05,04,09,4.70
2020,05,05,04,10,4.60
2020,05,05,04,11,4.60
2020,05,05,04,12,4.60
2020,05,05,04,13,4.60
2020,05,05,04,14,4.60
2020,05,05,04,15,4.60
2020,05,05,04,16,4.60
2020,05,05,04,17,4.60
2020,05,05,04,18,4.60
2020,05,05,04,19,4.50
2020,05,05,04,20,4.50
2020,05,05,04,21,4.50
2020,05,05,04,22,4.50
2020,05,05,04,23,4.40
2020,05,05,04,24,4.40
2020,05,05,04,25,4.40
2020,05,05,04,26,4.40
2020,05,05,04,27,4.40
2020,05,05,04,28,4.40
2020,05,05,04,29,4.40
2020,05,05,04,30,4.40
2020,05,05,04,31,4.40
2020,05,05,04,32,4.40
2020,05,05,04,33,4.40
2020,05,05,04,34,4.40
2020,05,05,04,35,4.40
2020,05,05,04,36,4.30
2020,05,05,04,37,4.30
2020,05,05,04,38,4.30
2020,05,05,04,39,4.30
2020,05,05,04,40,4.30
2020,05,05,04,41,4.30
2020,05,05,04,42,4.30
2020,05,05,04,43,4.30
2020,05,05,04,44,4.30
2020,05,05,04,45,4.30
2020,05,05,04,46,4.30
2020,05,05,04,47,4.30
2020,05,05,04,48,4.20
2020,05,05,04,49,4.30
2020,05,05,04,50,4.30
2020,05,05,04,51,4.30
2020,05,05,04,52,4.30
2020,05,05,04,53,4.20
2020,05,05,04,54,4.20
2020,05,05,04,55,4.20
2020,05,05,04,56,4.20
2020,05,05,04,57,4.20
2020,05,05,04,58,4.20
2020,05,05,04,59,4.30
2020,05,05,05,00,4.30
2020,05,05,05,01,4.30
2020,05,05,05,02,4.30
2020,05,05,05,03,4.30
2020,05,05,05,04,4.30
2020,05,05,05,05,4.30
2020,05,05,05,06,4.30
2020,05,05,05,07,4.40
2020,05,05,05,08,4.40
2020,05,05,05,09,4.40
2020,05,05,05,10,4.50
2020,05,05,05,11,4.50
2020,05,05,05,12,4.50
2020,05,05,05,13,4.60
2020,05,05,05,14,4.60
2020,05,05,05,15,4.60
2020,05,05,05,16,4.70
2020,05,05,05,17,4.70
2020,05,05,05,18,4.70
2020,05,05,05,19,4.70
2020,05,05,05,20,4.80
2020,05,05,05,21,4.80
2020,05,05,05,22,4.80
2020,05,05,05,23,4.80
2020,05,05,05,24,4.90
2020,05,05,05,25,4.90
2020,05,05,05,26,4.90
2020,05,05,05,27,4.90
2020,05,05,05,28,4.90
2020,05,05,05,29,4.90
2020,05,05,05,30,5.00
2020,05,05,05,31,5.00
2020,05,05,05,32,5.00
2020,05,05,05,33,5.00
2020,05,05,05,34,5.10
2020,05,05,05,35,5.10
2020,05,05,05,36,5.10
2020,05,05,05,37,5.10
2020,05,05,05,38,5.10
2020,05,05,05,39,5.10
2020,05,05,05,40,5.20
2020,05,05,05,41,5.20
2020,05,05,05,42,5.20
2020,05,05,05,43,5.20
2020,05,05,05,44,5.20
2020,05,05,05,45,5.20
2020,05,05,05,46,5.20
2020,05,05,05,47,5.20
2020,05,05,05,48,5.20
2020,05,05,05,49,5.20
2020,05,05,05,50,5.20
2020,05,05,05,51,5.20
2020,05,05,05,52,5.20
2020,05,05,05,53,5.30
2020,05,05,05,54,5.30
2020,05,05,05,55,5.30
2020,05,05,05,56,5.30
2020,05,05,05,57,5.30
2020,05,05,05,58,5.30
2020,05,05,05,59,5.40
2020,05,05,06,00,5.40
2020,05,05,06,01,5.40
2020,05,05,06,02,5.40
2020,05,05,06,03,5.40
2020,05,05,06,04,5.40
2020,05,05,06,05,5.40
2020,05,05,06,06,5.40
2020,05,05,06,07,5.40
2020,05,05,06,08,5.50
2020,05,05,06,09,5.50
2020,05,05,06,10,5.50
2020,05,05,06,11,5.50
2020,05,05,06,12,5.50
2020,05,05,06,13,5.50
2020,05,05,06,14,5.50
2020,05,05,06,15,5.50
2020,05,05,06,16,5.50
2020,05,05,06,17,5.50
2020,05,05,06,18,5.40
2020,05,05,06,19,5.40
2020,05,05,06,20,5.40
2020,05,05,06,21,5.40
2020,05,05,06,22,5.30
2020,05,05,06,23,5.30
2020,05,05,06,24,5.30
2020,05,05,06,25,5.30
2020,05,05,06,26,5.30
2020,05,05,06,27,5.30
2020,05,05,06,28,5.30
2020,05,05,06,29,5.30
2020,05,05,06,30,5.30
2020,05,05,06,31,5.30
2020,05,05,06,32,5.30
2020,05,05,06,33,5.30
2020,05,05,06,34,5.30
2020,05,05,06,35,5.40
2020,05,05,06,36,5.40
2020,05,05,06,37,5.40
2020,05,05,06,38,5.40
2020,05,05,06,39,5.40
2020,05,05,06,40,5.50
2020,05,05,06,41,5.40
2020,05,05,06,42,5.50
2020,05,05,06,43,5.50
2020,05,05,06,44,5.50
2020,05,05,06,45,5.50
2020,05,05,06,46,5.50
2020,05,05,06,47,5.50
2020,05,05,06,48,5.60
2020,05,05,06,49,5.60
2020,05,05,06,50,5.60
2020,05,05,06,51,5.60
2020,05,05,06,52,5.60
2020,05,05,06,53,5.60
2020,05,05,06,54,5.60
2020,05,05,06,55,5.60
2020,05,05,06,56,5.60
2020,05,05,06,57,5.60
2020,05,05,06,58,5.70
2020,05,05,06,59,5.70
2020,05,05,07,00,5.70
2020,05,05,07,01,5.70
2020,05,05,07,02,5.70
2020,05,05,07,03,5.80
2020,05,05,07,04,5.80
2020,05,05,07,05,5.80
2020,05,05,07,06,5.80
2020,05,05,07,07,5.80
2020,05,05,07,08,5.80
2020,05,05,07,09,5.80
2020,05,05,07,10,5.80
2020,05,05,07,11,5.80
2020,05,05,07,12,5.80
2020,05,05,07,13,5.80
2020,05,05,07,14,5.80
2020,05,05,07,15,5.80
2020,05,05,07,16,5.80
2020,05,05,07,17,5.80
2020,05,05,07,18,5.80
2020,05,05,07,19,5.80
2020,05,05,07,20,5.80
2020,05,05,07,21,5.80
2020,05,05,07,22,5.80
2020,05,05,07,23,5.80
2020,05,05,07,24,5.80
2020,05,05,07,25,5.80
2020,05,05,07,26,5.80
2020,05,05,07,27,5.80
2020,05,05,07,28,5.80
2020,05,05,07,29,5.80
2020,05,05,07,30,5.80
2020,05,05,07,31,5.80
2020,05,05,07,32,5.80
2020,05,05,07,33,5.80
2020,05,05,07,34,5.80
2020,05,05,07,35,5.80
2020,05,05,07,36,5.90
2020,05,05,07,37,5.90
2020,05,05,07,38,5.90
2020,05,05,07,39,5.90
2020,05,05,07,40,5.90
2020,05,05,07,41,5.90
2020,05,05,07,42,5.90
2020,05,05,07,43,5.90
2020,05,05,07,44,5.90
2020,05,05,07,45,5.90
2020,05,05,07,46,5.90
2020,05,05,07,47,5.90
2020,05,05,07,48,5.90
2020,05,05,07,49,6.00
2020,05,05,07,50,6.00
2020,05,05,07,51,6.00
2020,05,05,07,52,6.00
2020,05,05,07,53,6.00
2020,05,05,07,54,6.10
2020,05,05,07,55,6.10
2020,05,05,07,56,6.10
2020,05,05,07,57,6.10
2020,05,05,07,58,6.10
2020,05,05,07,59,6.10
2020,05,05,08,00,6.10
2020,05,05,08,01,6.20
2020,05,05,08,02,6.20
2020,05,05,08,03,6.20
2020,05,05,08,04,6.20
2020,05,05,08,05,6.20
2020,05,05,08,06,6.20
2020,05,05,08,07,6.20
2020,05,05,08,08,6.20
2020,05,05,08,09,6.20
2020,05,05,08,10,6.20
2020,05,05,08,11,6.20
2020,05,05,08,12,6.20
2020,05,05,08,13,6.20
2020,05,05,08,14,6.30
2020,05,05,08,15,6.20
2020,05,05,08,16,6.20
2020,05,05,08,17,6.20
2020,05,05,08,18,6.20
2020,05,05,08,19,6.20
2020,05,05,08,20,6.20
2020,05,05,08,21,6.20
2020,05,05,08,22,6.30
2020,05,05,08,23,6.30
2020,05,05,08,24,6.30
2020,05,05,08,25,6.30
2020,05,05,08,26,6.30
2020,05,05,08,27,6.30
2020,05,05,08,28,6.30
2020,05,05,08,29,6.30
2020,05,05,08,30,6.30
2020,05,05,08,31,6.30
2020,05,05,08,32,6.30
2020,05,05,08,33,6.30
2020,05,05,08,34,6.30
2020,05,05,08,35,6.30
2020,05,05,08,36,6.40
2020,05,05,08,37,6.40
2020,05,05,08,38,6.40
2020,05,05,08,39,6.40
2020,05,05,08,40,6.40
2020,05,05,08,41,6.40
2020,05,05,08,42,6.40
2020,05,05,08,43,6.40
2020,05,05,08,44,6.40
2020,05,05,08,45,6.40
2020,05,05,08,46,6.40
2020,05,05,08,47,6.40
2020,05,05,08,48,6.40
2020,05,05,08,49,6.40
2020,05,05,08,50,6.40
2020,05,05,08,51,6.50
2020,05,05,08,52,6.50
2020,05,05,08,53,6.50
2020,05,05,08,54,6.50
2020,05,05,08,55,6.50
2020,05,05,08,56,6.50
2020,05,05,08,57,6.50
2020,05,05,08,58,6.50
2020,05,05,08,59,6.50
2020,05,05,09,00,6.50
2020,05,05,09,01,6.50
2020,05,05,09,02,6.60
2020,05,05,09,03,6.60
2020,05,05,09,04,6.60
2020,05,05,09,05,6.60
2020,05,05,09,06,6.60
2020,05,05,09,07,6.60
2020,05,05,09,08,6.60
2020,05,05,09,09,6.60
2020,05,05,09,10,6.60
2020,05,05,09,11,6.60
2020,05,05,09,12,6.60
2020,05,05,09,13,6.70
2020,05,05,09,14,6.70
2020,05,05,09,15,6.70
2020,05,05,09,16,6.70
2020,05,05,09,17,6.70
2020,05,05,09,18,6.80
2020,05,05,09,19,6.80
2020,05,05,09,20,6.80
2020,05,05,09,21,6.80
2020,05,05,09,22,6.80
2020,05,05,09,23,6.90
2020,05,05,09,24,6.90
2020,05,05,09,25,6.90
2020,05,05,09,26,6.90
2020,05,05,09,27,6.90
2020,05,05,09,28,6.90
2020,05,05,09,29,6.90
2020,05,05,09,30,6.90
2020,05,05,09,31,6.90
2020,05,05,09,32,6.90
2020,05,05,09,33,6.90
2020,05,05,09,34,7.00
2020,05,05,09,35,7.00
2020,05,05,09,36,7.00
2020,05,05,09,37,7.10
2020,05,05,09,38,7.10
2020,05,05,09,39,7.10
2020,05,05,09,40,7.10
2020,05,05,09,41,7.10
2020,05,05,09,42,7.10
2020,05,05,09,43,7.10
2020,05,05,09,44,7.10
2020,05,05,09,45,7.20
2020,05,05,09,46,7.20
2020,05,05,09,47,7.20
2020,05,05,09,48,7.20
2020,05,05,09,49,7.20
2020,05,05,09,50,7.20
2020,05,05,09,51,7.20
2020,05,05,09,52,7.20
2020,05,05,09,53,7.20
2020,05,05,09,54,7.30
2020,05,05,09,55,7.30
2020,05,05,09,56,7.30
2020,05,05,09,57,7.30
2020,05,05,09,58,7.30
2020,05,05,09,59,7.40
2020,05,05,10,00,7.30
2020,05,05,10,01,7.30
2020,05,05,10,02,7.30
2020,05,05,10,03,7.40
2020,05,05,10,04,7.40
2020,05,05,10,05,7.40
2020,05,05,10,06,7.40
2020,05,05,10,07,7.40
2020,05,05,10,08,7.40
2020,05,05,10,09,7.40
2020,05,05,10,10,7.40
2020,05,05,10,11,7.50
2020,05,05,10,12,7.50
2020,05,05,10,13,7.50
2020,05,05,10,14,7.60
2020,05,05,10,15,7.60
2020,05,05,10,16,7.60
2020,05,05,10,17,7.60
2020,05,05,10,18,7.60
2020,05,05,10,19,7.70
2020,05,05,10,20,7.70
2020,05,05,10,21,7.70
2020,05,05,10,22,7.70
2020,05,05,10,23,7.70
2020,05,05,10,24,7.70
2020,05,05,10,25,7.80
2020,05,05,10,26,7.80
2020,05,05,10,27,7.80
2020,05,05,10,28,7.80
2020,05,05,10,29,7.90
2020,05,05,10,30,7.90
2020,05,05,10,31,8.00
2020,05,05,10,32,8.00
2020,05,05,10,33,8.10
2020,05,05,10,34,8.10
2020,05,05,10,35,8.20
2020,05,05,10,36,8.20
2020,05,05,10,37,8.20
2020,05,05,10,38,8.20
2020,05,05,10,39,8.20
2020,05,05,10,40,8.30
2020,05,05,10,41,8.30
2020,05,05,10,42,8.30
2020,05,05,10,43,8.40
2020,05,05,10,44,8.40
2020,05,05,10,45,8.40
2020,05,05,10,46,8.50
2020,05,05,10,47,8.60
2020,05,05,10,48,8.60
2020,05,05,10,49,8.60
2020,05,05,10,50,8.60
2020,05,05,10,51,8.60
2020,05,05,10,52,8.70
2020,05,05,10,53,8.70
2020,05,05,10,54,8.70
2020,05,05,10,55,8.70
2020,05,05,10,56,8.70
2020,05,05,10,57,8.80
2020,05,05,10,58,8.80
2020,05,05,10,59,8.90
2020,05,05,11,00,8.90
2020,05,05,11,01,8.90
2020,05,05,11,02,9.00
2020,05,05,11,03,9.00
2020,05,05,11,04,9.00
2020,05,05,11,05,9.10
2020,05,05,11,06,9.10
2020,05,05,11,07,9.10
2020,05,05,11,08,9.20
2020,05,05,11,09,9.20
2020,05,05,11,10,9.20
2020,05,05,11,11,9.30
2020,05,05,11,12,9.50
2020,05,05,11,13,9.60
2020,05,05,11,14,9.60
2020,05,05,11,15,9.70
2020,05,05,11,16,9.70
2020,05,05,11,17,9.70
2020,05,05,11,18,9.70
2020,05,05,11,19,9.80
2020,05,05,11,20,9.80
2020,05,05,11,21,9.90
2020,05,05,11,22,9.90
2020,05,05,11,23,9.90
2020,05,05,11,24,9.90
2020,05,05,11,25,9.90
2020,05,05,11,26,10.00
2020,05,05,11,27,10.00
2020,05,05,11,28,10.00
2020,05,05,11,29,10.00
2020,05,05,11,30,10.00
2020,05,05,11,31,10.10
2020,05,05,11,32,10.10
2020,05,05,11,33,10.10
2020,05,05,11,34,10.10
2020,05,05,11,35,10.10
2020,05,05,11,36,10.20
2020,05,05,11,37,10.30
2020,05,05,11,38,10.30
2020,05,05,11,39,10.40
2020,05,05,11,40,10.40
2020,05,05,11,41,10.50
2020,05,05,11,42,10.50
2020,05,05,11,43,10.50
2020,05,05,11,44,10.60
2020,05,05,11,45,10.70
2020,05,05,11,46,10.80
2020,05,05,11,47,10.90
2020,05,05,11,48,11.00
2020,05,05,11,49,11.10
2020,05,05,11,50,11.20
2020,05,05,11,51,11.20
2020,05,05,11,52,11.30
2020,05,05,11,53,11.30
2020,05,05,11,54,11.30
2020,05,05,11,55,11.40
2020,05,05,11,56,11.50
2020,05,05,11,57,11.50
2020,05,05,11,58,11.60
2020,05,05,11,59,11.60
2020,05,05,12,00,11.60
2020,05,05,12,01,11.60
2020,05,05,12,02,11.60
2020,05,05,12,03,11.60
2020,05,05,12,04,11.70
2020,05,05,12,05,11.70
2020,05,05,12,06,11.80
2020,05,05,12,07,11.90
2020,05,05,12,08,11.90
2020,05,05,12,09,11.90
2020,05,05,12,10,12.00
2020,05,05,12,11,12.20
2020,05,05,12,12,12.30
2020,05,05,12,13,12.30
2020,05,05,12,14,12.40
2020,05,05,12,15,12.50
2020,05,05,12,16,12.60
2020,05,05,12,17,12.60
2020,05,05,12,18,12.70
2020,05,05,12,19,12.80
2020,05,05,12,20,12.80
2020,05,05,12,21,12.90
2020,05,05,12,22,12.90
2020,05,05,12,23,12.90
2020,05,05,12,24,12.90
2020,05,05,12,25,12.90
2020,05,05,12,26,13.00
2020,05,05,12,27,13.10
2020,05,05,12,28,13.10
2020,05,05,12,29,13.20
2020,05,05,12,30,13.20
2020,05,05,12,31,13.30
2020,05,05,12,32,13.30
2020,05,05,12,33,13.40
2020,05,05,12,34,13.50
2020,05,05,12,35,13.50
2020,05,05,12,36,13.60
2020,05,05,12,37,13.60
2020,05,05,12,38,13.70
2020,05,05,12,39,13.70
2020,05,05,12,40,13.70
2020,05,05,12,41,13.60
2020,05,05,12,42,13.60
2020,05,05,12,43,13.60
2020,05,05,12,44,13.60
2020,05,05,12,45,13.70
2020,05,05,12,46,13.70
2020,05,05,12,47,13.90
2020,05,05,12,48,14.10
2020,05,05,12,49,14.20
2020,05,05,12,50,14.40
2020,05,05,12,51,14.50
2020,05,05,12,52,14.60
2020,05,05,12,53,14.60
2020,05,05,12,54,14.60
2020,05,05,12,55,14.70
2020,05,05,12,56,14.70
2020,05,05,12,57,14.70
2020,05,05,12,58,14.80
2020,05,05,12,59,14.90
2020,05,05,13,00,15.00
2020,05,05,13,01,15.00
2020,05,05,13,02,15.10
2020,05,05,13,03,15.10
2020,05,05,13,04,15.20
2020,05,05,13,05,15.30
2020,05,05,13,06,15.40
2020,05,05,13,07,15.50
2020,05,05,13,08,15.60
2020,05,05,13,09,15.70
2020,05,05,13,10,15.80
2020,05,05,13,11,15.90
2020,05,05,13,12,15.80
2020,05,05,13,13,15.80
2020,05,05,13,14,15.80
2020,05,05,13,15,15.80
2020,05,05,13,16,15.80
2020,05,05,13,17,15.80
2020,05,05,13,18,15.80
2020,05,05,13,19,15.80
2020,05,05,13,20,15.80
2020,05,05,13,21,15.80
2020,05,05,13,22,15.80
2020,05,05,13,23,15.80
2020,05,05,13,24,15.80
2020,05,05,13,25,15.70
2020,05,05,13,26,15.80
2020,05,05,13,27,15.80
2020,05,05,13,28,15.80
2020,05,05,13,29,15.90
2020,05,05,13,30,16.00
2020,05,05,13,31,16.10
2020,05,05,13,32,16.20
2020,05,05,13,33,16.40
2020,05,05,13,34,16.40
2020,05,05,13,35,16.40
2020,05,05,13,36,16.40
2020,05,05,13,37,16.40
2020,05,05,13,38,16.40
2020,05,05,13,39,16.40
2020,05,05,13,40,16.40
2020,05,05,13,41,16.40
2020,05,05,13,42,16.40
2020,05,05,13,43,16.30
2020,05,05,13,44,16.30
2020,05,05,13,45,16.40
2020,05,05,13,46,16.40
2020,05,05,13,47,16.50
2020,05,05,13,48,16.50
2020,05,05,13,49,16.60
2020,05,05,13,50,16.60
2020,05,05,13,51,16.70
2020,05,05,13,52,16.70
2020,05,05,13,53,16.70
2020,05,05,13,54,16.70
2020,05,05,13,55,16.60
2020,05,05,13,56,16.60
2020,05,05,13,57,16.60
2020,05,05,13,58,16.70
2020,05,05,13,59,16.70
2020,05,05,14,00,16.70
2020,05,05,14,01,16.70
2020,05,05,14,02,16.80
2020,05,05,14,03,16.80
2020,05,05,14,04,16.90
2020,05,05,14,05,16.90
2020,05,05,14,06,17.00
2020,05,05,14,07,17.00
2020,05,05,14,08,17.10
2020,05,05,14,09,17.10
2020,05,05,14,10,17.10
2020,05,05,14,11,17.10
2020,05,05,14,12,17.20
2020,05,05,14,13,17.20
2020,05,05,14,14,17.10
2020,05,05,14,15,17.00
2020,05,05,14,16,17.00
2020,05,05,14,17,17.00
2020,05,05,14,18,16.90
2020,05,05,14,19,16.90
2020,05,05,14,20,16.90
2020,05,05,14,21,17.00
2020,05,05,14,22,17.00
2020,05,05,14,23,17.00
2020,05,05,14,24,16.90
2020,05,05,14,25,16.90
2020,05,05,14,26,16.90
2020,05,05,14,27,17.00
2020,05,05,14,28,17.00
2020,05,05,14,29,17.00
2020,05,05,14,30,17.10
2020,05,05,14,31,17.20
2020,05,05,14,32,17.20
2020,05,05,14,33,17.20
2020,05,05,14,34,17.20
2020,05,05,14,35,17.20
2020,05,05,14,36,17.20
2020,05,05,14,37,17.20
2020,05,05,14,38,17.30
2020,05,05,14,39,17.20
2020,05,05,14,40,17.20
2020,05,05,14,41,17.10
2020,05,05,14,42,17.10
2020,05,05,14,43,17.20
2020,05,05,14,44,17.20
2020,05,05,14,45,17.30
2020,05,05,14,46,17.30
2020,05,05,14,47,17.30
2020,05,05,14,48,17.40
2020,05,05,14,49,17.50
2020,05,05,14,50,17.60
2020,05,05,14,51,17.60
2020,05,05,14,52,17.60
2020,05,05,14,53,17.60
2020,05,05,14,54,17.60
2020,05,05,14,55,17.60
2020,05,05,14,56,17.60
2020,05,05,14,57,17.70
2020,05,05,14,58,17.70
2020,05,05,14,59,17.70
2020,05,05,15,00,17.70
2020,05,05,15,01,17.60
2020,05,05,15,02,17.50
2020,05,05,15,03,17.50
2020,05,05,15,04,17.50
2020,05,05,15,05,17.40
2020,05,05,15,06,17.40
2020,05,05,15,07,17.40
2020,05,05,15,08,17.40
2020,05,05,15,09,17.40
2020,05,05,15,10,17.40
2020,05,05,15,11,17.30
2020,05,05,15,12,17.30
2020,05,05,15,13,17.20
2020,05,05,15,14,17.10
2020,05,05,15,15,17.10
2020,05,05,15,16,17.10
2020,05,05,15,17,17.20
2020,05,05,15,18,17.20
2020,05,05,15,19,17.20
2020,05,05,15,20,17.20
2020,05,05,15,21,17.20
2020,05,05,15,22,17.30
2020,05,05,15,23,17.30
2020,05,05,15,24,17.30
2020,05,05,15,25,17.30
2020,05,05,15,26,17.30
2020,05,05,15,27,17.30
2020,05,05,15,28,17.30
2020,05,05,15,29,17.30
2020,05,05,15,30,17.30
2020,05,05,15,31,17.30
2020,05,05,15,32,17.40
2020,05,05,15,33,17.40
2020,05,05,15,34,17.50
2020,05,05,15,35,17.60
2020,05,05,15,36,17.70
2020,05,05,15,37,17.70
2020,05,05,15,38,17.70
2020,05,05,15,39,17.70
2020,05,05,15,40,17.70
2020,05,05,15,41,17.70
2020,05,05,15,42,17.60
2020,05,05,15,43,17.70
2020,05,05,15,44,17.70
2020,05,05,15,45,17.70
2020,05,05,15,46,17.80
2020,05,05,15,47,17.80
2020,05,05,15,48,17.80
2020,05,05,15,49,17.80
2020,05,05,15,50,17.80
2020,05,05,15,51,17.80
2020,05,05,15,52,17.80
2020,05,05,15,53,17.80
2020,05,05,15,54,17.80
2020,05,05,15,55,17.90
2020,05,05,15,56,17.90
2020,05,05,15,57,17.90
2020,05,05,15,58,17.90
2020,05,05,15,59,18.00
2020,05,05,16,00,18.10
2020,05,05,16,01,18.20
2020,05,05,16,02,18.20
2020,05,05,16,03,18.20
2020,05,05,16,04,18.10
2020,05,05,16,05,18.10
2020,05,05,16,06,18.00
2020,05,05,16,07,18.00
2020,05,05,16,08,18.00
2020,05,05,16,09,18.00
2020,05,05,16,10,18.00
2020,05,05,16,11,18.00
2020,05,05,16,12,18.10
2020,05,05,16,13,18.10
2020,05,05,16,14,18.10
2020,05,05,16,15,18.20
2020,05,05,16,16,18.30
2020,05,05,16,17,18.30
2020,05,05,16,18,18.30
2020,05,05,16,19,18.30
2020,05,05,16,20,18.30
2020,05,05,16,21,18.30
2020,05,05,16,22,18.30
2020,05,05,16,23,18.30
2020,05,05,16,24,18.30
2020,05,05,17,06,18.60
2020,05,05,17,07,18.50
2020,05,05,17,08,18.50
2020,05,05,17,09,18.50
2020,05,05,17,10,18.40
2020,05,05,17,11,18.40
2020,05,05,17,12,18.40
2020,05,05,17,13,18.40
2020,05,05,17,14,18.40
2020,05,05,17,15,18.40
2020,05,05,17,16,18.40
2020,05,05,17,17,18.40
2020,05,05,17,18,18.40
2020,05,05,17,19,18.50
2020,05,05,17,20,18.50
2020,05,05,17,21,18.50
2020,05,05,17,22,18.50
2020,05,05,17,23,18.50
2020,05,05,17,24,18.40
2020,05,05,17,25,18.50
2020,05,05,17,26,18.50
2020,05,05,17,27,18.60
2020,05,05,17,28,18.60
2020,05,05,17,29,18.60
2020,05,05,17,30,18.60
2020,05,05,17,31,18.50
2020,05,05,17,32,18.40
2020,05,05,17,33,18.40
2020,05,05,17,34,18.40
2020,05,05,17,35,18.30
2020,05,05,17,36,18.30
2020,05,05,17,37,18.20
2020,05,05,17,38,18.20
2020,05,05,17,39,18.10
2020,05,05,17,40,18.10
2020,05,05,17,41,18.20
2020,05,05,17,42,18.20
2020,05,05,17,43,18.20
2020,05,05,17,44,18.20
2020,05,05,17,45,18.20
2020,05,05,17,46,18.30
2020,05,05,17,47,18.30
2020,05,05,17,48,18.30
2020,05,05,17,49,18.30
2020,05,05,17,50,18.40
2020,05,05,17,51,18.40
2020,05,05,17,52,18.40
2020,05,05,17,53,18.30
2020,05,05,17,54,18.30
2020,05,05,17,55,18.30
2020,05,05,17,56,18.30
2020,05,05,17,57,18.30
2020,05,05,17,58,18.30
2020,05,05,17,59,18.30
2020,05,05,18,00,18.30
2020,05,05,18,01,18.20
2020,05,05,18,02,18.10
2020,05,05,18,03,18.10
2020,05,05,18,04,18.00
2020,05,05,18,05,18.00
2020,05,05,18,06,18.00
2020,05,05,18,07,18.00
2020,05,05,18,08,17.90
2020,05,05,18,09,17.90
2020,05,05,18,10,17.90
2020,05,05,18,11,17.90
2020,05,05,18,12,17.80
2020,05,05,18,13,17.80
2020,05,05,18,14,17.80
2020,05,05,18,15,17.70
2020,05,05,18,16,17.70
2020,05,05,18,17,17.60
2020,05,05,18,18,17.60
2020,05,05,18,19,17.50
2020,05,05,18,20,17.50
2020,05,05,18,21,17.50
2020,05,05,18,22,17.50
2020,05,05,18,23,17.50
2020,05,05,18,24,17.60
2020,05,05,18,25,17.60
2020,05,05,18,26,17.60
2020,05,05,18,27,17.70
2020,05,05,18,28,17.70
2020,05,05,18,29,17.70
2020,05,05,18,30,17.70